Regional Weather Roundup
Issued by NWS

Home | Current Version | Previous Version | Text Only | Print | Product List | Glossary Off
Versions: 1 2 3 4 5 6 7 8 9 10 11 12 13 14 15 16 17 18 19 20 21 22 23 24 25 26 27 28 29 30 31 32 33 34 35 36 37 38 39 40 41 42 43 44 45 46 47 48 49 50

000
ASUS45 KCYS 261010
RWRWY

WYOMING REGIONAL WEATHER ROUNDUP
NATIONAL WEATHER SERVICE CHEYENNE WY
400 AM MDT TUE AUG 26 2014

NOTE:  "FAIR" INDICATES FEW OR NO CLOUDS BELOW 12,000 FEET
WITH NO SIGNIFICANT WEATHER AND/OR OBSTRUCTIONS TO VISIBILITY.

WYZ001-261100-
YELLOWSTONE NATIONAL PARK

CITY           SKY/WX    TMP DP  RH WIND       PRES   REMARKS
LK YELLOWSTONE   N/A     35  33  92 CALM      30.30S
W YELLOWSTONE  NOT AVBL

$$
WYZ002>013-054>058-071-098>099-261100-
NORTHERN WYOMING

CITY           SKY/WX    TMP DP  RH WIND       PRES   REMARKS
JACKSON        PTCLDY    37  37 100 N5        30.24S WCI  34
CODY           CLEAR     50  48  93 CALM      30.14F
GREYBULL       PTCLDY    51  49  92 CALM      30.10S
WORLAND        PTCLDY    51  48  89 CALM      30.10F
SHERIDAN       PTCLDY    48  45  89 NW7       30.11F
BUFFALO        MOCLDY    49  45  86 W7        30.13F
GILLETTE       CLOUDY    54  48  80 SE7       30.14R
HULETT         PTSUNNY   48  45  87 MISG      30.16
NEWCASTLE      FAIR      57  46  67 SE14      30.16

$$
WYZ014>020-022>026-101>103-261100-
CENTRAL WYOMING

CITY           SKY/WX    TMP DP  RH WIND       PRES   REMARKS
BIG PINEY      LGT RAIN  45  43  93 S6        30.30R
PINEDALE       CLOUDY    41  41 100 W7        30.29R
DUBOIS         FAIR      37  36  93 NW13      30.25F WCI  29
LANDER         PTCLDY    49  45  86 CALM      30.16S
RIVERTON       PTCLDY    49  48  97 N7        30.16F
CASPER         CLOUDY    52  49  89 CALM      30.14F
DOUGLAS        CLOUDY    55  52  89 SE16      30.15F

$$
WYZ021-027>030-104>119-261100-
SOUTHERN WYOMING

CITY           SKY/WX    TMP DP  RH WIND       PRES   REMARKS
EVANSTON       LGT RAIN  49  44  83 N10       30.26S
KEMMERER       LGT RAIN  48  45  87 NW13      30.27R
FORT BRIDGER     N/A     51  49  93 W10       30.28R
ROCK SPRINGS   MOCLDY    54  46  74 S6        30.19S
DIXON          FAIR      51  47  86 E12       30.24F
RAWLINS        MOCLDY    50  47  89 E5        30.22S
SARATOGA       FAIR      48  46  93 MISG      30.26F
LARAMIE        MOCLDY    47  44  90 E8        30.28R
CHEYENNE       MOCLDY    55  52  89 NW5       30.25F
TORRINGTON     LGT RAIN  55  53  93 NE13      30.16F
PINE BLUFFS    PTSUNNY   55  54  94 CALM      30.23S

$$


USA.gov is the U.S. government's official web portal to all federal, state and local government web resources and services.